Location: Edemissen
(51.7689°N, 9.8634°E)
Time: 05:00:39
(UTC+00:00)

NOAA 19 - Visible Passes

Search period start: 06 June 2026 00:00
Search period end: 16 June 2026 00:00
Orbit: 837 x 858 km, 99.0° (Epoch: 5 June)

Date Brightness Start Highest point End Pass type
(mag) Time Alt. Az. Time Alt. Az. Time Alt. Az.
6 Jun 5.2 20:43:10 10° SSE 20:48:38 90° W 20:54:07 10° NNW visible
6 Jun 7.4 22:26:38 10° SW 22:30:01 17° W 22:33:25 10° NW visible
7 Jun 5.3 20:30:27 10° SSE 20:35:52 74° ENE 20:41:19 10° NNW visible
7 Jun 7.1 22:13:03 10° SW 22:17:04 21° W 22:21:06 10° NW visible
8 Jun 5.4 20:17:47 10° SSE 20:23:08 60° ENE 20:28:30 10° N visible
8 Jun 6.8 21:59:40 10° SSW 22:04:08 26° W 22:08:39 10° NW visible
9 Jun 6.5 21:46:26 10° SSW 21:51:14 32° W 21:56:05 10° NNW visible
10 Jun 6.2 21:33:18 10° SSW 21:38:22 39° W 21:43:28 10° NNW visible
11 Jun 5.9 21:20:16 10° S 21:25:31 49° W 21:30:49 10° NNW visible
12 Jun 5.6 21:07:18 10° S 21:12:41 61° WSW 21:18:06 10° NNW visible
12 Jun 7.7 22:53:30 10° W 22:54:27 10° W 22:55:24 10° WNW visible
13 Jun 5.3 20:54:26 10° S 20:59:53 76° WSW 21:05:22 10° NNW visible
13 Jun 7.5 22:38:49 10° WSW 22:41:26 14° W 22:44:06 10° NW visible
14 Jun 5.2 20:41:39 10° SSE 20:47:06 88° ENE 20:52:36 10° NNW visible
14 Jun 7.3 22:24:58 10° SW 22:28:28 17° W 22:31:59 10° NW visible
15 Jun 5.3 20:28:56 10° SSE 20:34:21 72° ENE 20:39:48 10° NNW visible
15 Jun 7.1 22:11:26 10° SW 22:15:31 21° W 22:19:38 10° NW visible
